Back to catalog

STARLINK-3718

AliveCommunicationsVLEO
NORAD 52132·PAYLOAD·🇺🇸 United States

Launched Mar 19, 2022 from Cape Canaveral Space Force Station

Loading…

Next Passes (next 24 hours)

TLE

FreshSource: CelesTrak SupGP

Epoch: Sep 15, 2026, 02:35 UTC

1 52132C 22029AW  26258.10812500 -.00005722  00000+0 -16888-3 0  2587
2 52132  53.1588 292.6955 0001184  99.2496  75.2110 15.34424716    10

Track STARLINK-3718 in real time with AllMySat

Download on the App Store